Location: Unspecified
(52.4292°N, 19.3359°E)
Time: 00:41:23
(UTC+02:00)

A-11 Canister half - Pass Details

Date: 27 May 2024
Orbit: 1515 x 1685 km, 47.2° (Epoch: 19 June)

Event Time Altitude Azimuth Distance (km) Brightness Sun altitude
Rises 07:25:42 0° 284° (WNW) 4,701 11.0 23.7°
Reaches altitude 10° 07:29:03 10° 276° (W) 3,701 10.5 24.2°
Maximum altitude 07:37:13 37° 215° (SW) 2,211 9.8 25.4°
Drops below altitude 10° 07:45:20 10° 152° (SSE) 3,673 11.4 26.7°
Sets 07:48:39 0° 145° (SE) 4,662 12.0 27.2°
